User: anonymous   Login
Location: Unspecified
(51.0950°N, 12.9690°E)
Time: 02:38:18
(UTC+00:00)
Language:

FALCON 9 DEB - Orbit

View from above orbital plane
View from above orbital plane
View from above satellite
View from above satellite

Ground track
Ground track

The orbit data is extracted from the following two-line orbital elements,

1 46087U 20055BN  22019.53684122  .00111257  00000-0  53979-3 0  9995
2 46087  52.9986 202.6924 0007552 221.3384 138.7066 15.81628037 87684
Epoch (UTC): 19 January 2022 12:53:03
Eccentricity: 0.0007552
inclination: 52.9986°
perigee height: 321 km
apogee height: 331 km
right ascension of ascending node: 202.6924°
argument of perigee: 221.3384°
revolutions per day: 15.81628037
mean anomaly at epoch: 138.7066°
orbit number at epoch: 8768

The dashed part of the orbit path shows where the satellite is in the earth's shadow,  

DLR